DW5338 Weather Reports


Display with metric or nautical units.
time (UTC)temp
F
wind
direction
speed
MPH
gust
MPH
rain 1hr
in
rain 24hr
in
rain mn
in
humidity
%
barometer
mb
20210618074829 64 225 5.0 6.0 0.00 0.00 0.00 33 1026.7
20210618074328 64 202 6.0 8.0 0.00 0.00 0.00 33 1027.0
20210618073828 64 202 4.0 10.0 0.00 0.00 0.00 33 1026.7
20210618073328 64 225 8.0 10.0 0.00 0.00 0.00 33 1026.7
20210618072828 64 247 7.0 10.0 0.00 0.00 0.00 33 1026.7
20210618072328 65 292 6.0 10.0 0.00 0.00 0.00 33 1026.7
20210618071828 65 202 6.0 10.0 0.00 0.00 0.00 33 1026.7
20210618071328 65 225 5.0 9.0 0.00 0.00 0.00 33 1026.7
20210618070828 65 247 6.0 10.0 0.00 0.00 0.00 33 1026.8
20210618070328 64 270 5.0 8.0 0.00 0.00 0.00 33 1026.8
20210618065828 64 247 6.0 7.0 0.00 0.00 0.00 34 1026.8
20210618065328 64 270 8.0 10.0 0.00 0.00 0.00 34 1026.8
20210618064828 64 270 5.0 10.0 0.00 0.00 0.00 35 1026.8
20210618064328 64 225 6.0 8.0 0.00 0.00 0.00 34 1026.8
20210618063828 64 225 5.0 9.0 0.00 0.00 0.00 34 1026.8
20210618063328 65 247 5.0 7.0 0.00 0.00 0.00 34 1026.8
20210618062828 65 225 5.0 8.0 0.00 0.00 0.00 34 1026.8
20210618062328 65 292 4.0 8.0 0.00 0.00 0.00 34 1026.9
20210618061828 65 225 8.0 10.0 0.00 0.00 0.00 34 1026.9
20210618061328 65 247 6.0 10.0 0.00 0.00 0.00 34 1026.9
20210618060828 65 225 6.0 11.0 0.00 0.00 0.00 35 1026.9
20210618060328 65 202 6.0 11.0 0.00 0.00 0.00 35 1026.9
20210618055828 65 225 8.0 10.0 0.00 0.00 0.00 35 1026.9
20210618055328 64 247 5.0 8.0 0.00 0.00 0.00 36 1026.9
20210618054828 64 225 5.0 8.0 0.00 0.00 0.00 36 1026.9
20210618054328 64 225 5.0 8.0 0.00 0.00 0.00 36 1026.9
20210618053828 64 225 5.0 7.0 0.00 0.00 0.00 37 1026.9
20210618053328 64 247 4.0 7.0 0.00 0.00 0.00 37 1027.2
20210618052828 64 180 6.0 7.0 0.00 0.00 0.00 37 1027.2
20210618052328 64 202 4.0 9.0 0.00 0.00 0.00 37 1026.9
20210618051828 64 202 6.0 10.0 0.00 0.00 0.00 38 1026.9
20210618051328 64 270 6.0 11.0 0.00 0.00 0.00 38 1026.9
20210618050828 64 225 7.0 11.0 0.00 0.00 0.00 39 1026.9
20210618050328 64 225 7.0 12.0 0.00 0.00 0.00 39 1026.9
20210618045828 64 202 10.0 11.0 0.00 0.00 0.00 39 1026.9
20210618045328 64 247 6.0 10.0 0.00 0.00 0.00 39 1026.9
20210618044828 65 225 8.0 10.0 0.00 0.00 0.00 39 1027.2
20210618044328 65 202 6.0 10.0 0.00 0.00 0.00 39 1027.2
20210618043828 65 225 8.0 10.0 0.00 0.00 0.00 39 1027.2
20210618043328 65 225 6.0 8.0 0.00 0.00 0.00 39 1027.2
20210618042828 65 202 4.0 8.0 0.00 0.00 0.00 39 1027.2
20210618042328 65 202 6.0 8.0 0.00 0.00 0.00 39 1027.2
20210618041828 65 225 3.0 6.0 0.00 0.00 0.00 39 1027.2
20210618041328 65 270 5.0 8.0 0.00 0.00 0.00 39 1027.1
20210618040828 65 225 5.0 9.0 0.00 0.00 0.00 39 1027.1
20210618040328 66 247 8.0 9.0 0.00 0.00 0.00 39 1027.1
20210618035828 66 225 5.0 8.0 0.00 0.00 0.00 38 1027.1
20210618035328 66 225 6.0 8.0 0.00 0.00 0.00 38 1026.8
20210618034828 67 225 6.0 9.0 0.00 0.00 0.00 37 1026.8
20210618034328 67 225 5.0 8.0 0.00 0.00 0.00 36 1026.8
20210618033828 68 292 5.0 8.0 0.00 0.00 0.00 36 1026.8
20210618033328 69 270 6.0 8.0 0.00 0.00 0.00 35 1026.8
20210618032828 69 247 5.0 8.0 0.00 0.00 0.00 34 1026.7
20210618032328 70 247 5.0 9.0 0.00 0.00 0.00 33 1026.4
20210618031828 70 247 3.0 5.0 0.00 0.00 0.00 32 1026.4
20210618031328 70 247 3.0 5.0 0.00 0.00 0.00 32 1026.4
20210618030829 70 247 4.0 6.0 0.00 0.00 0.00 32 1026.4
20210618030328 70 247 5.0 7.0 0.00 0.00 0.00 31 1026.4
20210618025828 70 225 6.0 6.0 0.00 0.00 0.00 31 1026.3
20210618025328 70 247 4.0 6.0 0.00 0.00 0.00 31 1026.3
20210618024829 70 180 5.0 8.0 0.00 0.00 0.00 31 1026.3
20210618024328 70 180 5.0 7.0 0.00 0.00 0.00 32 1026.3
20210618023828 70 225 1.0 2.0 0.00 0.00 0.00 32 1026.3
20210618023328 71 0 2.0 4.0 0.00 0.00 0.00 32 1026.2
20210618022828 71 0 3.0 3.0 0.00 0.00 0.00 31 1025.9
20210618022328 72 315 1.0 5.0 0.00 0.00 0.00 30 1025.9
20210618021828 72 292 3.0 5.0 0.00 0.00 0.00 30 1026.2
20210618021328 73 225 1.0 6.0 0.00 0.00 0.00 30 1025.8
20210618020829 73 225 5.0 6.0 0.00 0.00 0.00 30 1026.1
20210618020329 73 180 4.0 7.0 0.00 0.00 0.00 30 1026.1
20210618015828 73 180 2.0 6.0 0.00 0.00 0.00 31 1026.1
20210618015328 73 180 5.0 8.0 0.00 0.00 0.00 30 1025.7
20210618014828 73 180 4.0 7.0 0.00 0.00 0.00 30 1026.0
20210618014328 73 180 6.0 8.0 0.00 0.00 0.00 30 1026.0
20210618013828 73 202 1.0 8.0 0.00 0.00 0.00 30 1025.9
20210618013328 73 180 5.0 12.0 0.00 0.00 0.00 30 1025.6
20210618012828 73 157 9.0 11.0 0.00 0.00 0.00 30 1025.6
20210618012328 73 157 9.0 12.0 0.00 0.00 0.00 30 1025.9
20210618011828 73 180 7.0 16.0 0.00 0.00 0.00 30 1025.5
20210618011328 74 135 13.0 15.0 0.00 0.00 0.00 30 1025.5
20210618010828 74 157 8.0 12.0 0.00 0.00 0.00 30 1025.5
20210618010328 74 157 6.0 6.0 0.00 0.00 0.00 29 1025.4
20210618005828 74 22 2.0 7.0 0.00 0.00 0.00 29 1025.4
20210618005328 74 135 4.0 8.0 0.00 0.00 0.00 30 1025.0
20210618004828 73 337 2.0 12.0 0.00 0.00 0.00 29 1025.0
20210618004328 73 157 10.0 16.0 0.00 0.00 0.00 29 1025.0
20210618003828 74 292 3.0 19.0 0.00 0.00 0.00 29 1024.9
20210618003329 75 180 8.0 14.0 0.00 0.00 0.00 30 1024.6
20210618002829 76 202 13.0 21.0 0.00 0.00 0.00 27 1024.9
20210618002328 76 157 8.0 13.0 0.00 0.00 0.00 25 1024.9
20210618001828 77 225 9.0 20.0 0.00 0.00 0.00 25 1024.9
20210618001328 78 225 8.0 14.0 0.00 0.00 0.00 25 1024.8
20210618000828 78 180 8.0 17.0 0.00 0.00 0.00 25 1024.8
20210618000330 79 157 6.0 18.0 0.00 0.00 0.00 25 1024.8
20210617235828 79 180 6.0 13.0 0.00 0.00 0.00 25 1025.1
20210617235328 79 135 8.0 11.0 0.00 0.00 0.00 25 1025.1
20210617234828 79 180 9.0 12.0 0.00 0.00 0.00 25 1025.0
20210617234328 79 202 6.0 11.0 0.00 0.00 0.00 25 1025.0
20210617233828 79 180 7.0 13.0 0.00 0.00 0.00 24 1025.0
20210617233328 79 202 13.0 18.0 0.00 0.00 0.00 24 1025.3
20210617232828 79 180 5.0 12.0 0.00 0.00 0.00 24 1025.0
20210617232328 79 292 9.0 20.0 0.00 0.00 0.00 24 1024.6
20210617231828 80 135 14.0 16.0 0.00 0.00 0.00 24 1024.6
20210617231328 80 157 16.0 19.0 0.00 0.00 0.00 23 1024.6
20210617230828 80 157 10.0 16.0 0.00 0.00 0.00 23 1024.6
20210617230328 81 225 13.0 20.0 0.00 0.00 0.00 23 1024.2
20210617225828 81 135 13.0 17.0 0.00 0.00 0.00 23 1024.2
20210617225328 81 135 10.0 18.0 0.00 0.00 0.00 23 1024.5
20210617224828 81 180 4.0 10.0 0.00 0.00 0.00 24 1024.5
20210617224328 81 247 3.0 8.0 0.00 0.00 0.00 23 1024.4
20210617223828 80 90 4.0 7.0 0.00 0.00 0.00 23 1024.4
20210617223328 80 90 8.0 13.0 0.00 0.00 0.00 23 1024.1
20210617222828 80 157 11.0 16.0 0.00 0.00 0.00 23 1024.4
20210617222328 81 180 7.0 15.0 0.00 0.00 0.00 22 1024.0
20210617221828 81 135 8.0 18.0 0.00 0.00 0.00 22 1024.0
20210617221328 81 157 13.0 19.0 0.00 0.00 0.00 23 1024.0
20210617220828 81 157 11.0 14.0 0.00 0.00 0.00 23 1024.0
20210617220328 81 247 6.0 16.0 0.00 0.00 0.00 22 1023.9
20210617215828 81 22 4.0 12.0 0.00 0.00 0.00 23 1024.2
20210617215328 81 202 6.0 13.0 0.00 0.00 0.00 22 1024.2
20210617214828 82 180 5.0 15.0 0.00 0.00 0.00 22 1024.2
20210617214328 82 225 5.0 17.0 0.00 0.00 0.00 22 1024.1
20210617213828 82 112 3.0 15.0 0.00 0.00 0.00 22 1024.1
20210617213328 82 112 13.0 13.0 0.00 0.00 0.00 22 1024.1
20210617212828 82 135 10.0 11.0 0.00 0.00 0.00 22 1024.1
20210617212328 83 202 4.0 8.0 0.00 0.00 0.00 21 1024.1
20210617211828 83 135 4.0 14.0 0.00 0.00 0.00 21 1024.0
20210617211328 83 135 8.0 14.0 0.00 0.00 0.00 21 1024.3
20210617210828 84 135 11.0 16.0 0.00 0.00 0.00 21 1024.3
20210617210328 84 112 8.0 13.0 0.00 0.00 0.00 21 1024.3
20210617205828 85 112 5.0 9.0 0.00 0.00 0.00 21 1024.3
20210617205328 85 67 2.0 7.0 0.00 0.00 0.00 21 1024.6
20210617204828 85 90 4.0 11.0 0.00 0.00 0.00 20 1024.5
20210617204328 85 112 6.0 8.0 0.00 0.00 0.00 20 1024.5
20210617203828 85 22 4.0 8.0 0.00 0.00 0.00 20 1024.5
20210617203328 84 22 6.0 12.0 0.00 0.00 0.00 19 1024.5
20210617202828 84 0 4.0 16.0 0.00 0.00 0.00 18 1024.4
20210617202328 83 247 5.0 13.0 0.00 0.00 0.00 18 1024.7
20210617201828 83 0 7.0 9.0 0.00 0.00 0.00 18 1024.7
20210617201328 83 337 8.0 11.0 0.00 0.00 0.00 19 1024.7
20210617200828 83 202 8.0 12.0 0.00 0.00 0.00 18 1024.7
20210617200328 83 225 1.0 14.0 0.00 0.00 0.00 18 1024.7
20210617195829 83 337 10.0 15.0 0.00 0.00 0.00 18 1025.0
20210617195328 83 270 3.0 14.0 0.00 0.00 0.00 18 1024.9
20210617194829 83 225 7.0 13.0 0.00 0.00 0.00 18 1024.9
20210617194328 82 180 4.0 10.0 0.00 0.00 0.00 18 1024.9
20210617193828 82 292 4.0 14.0 0.00 0.00 0.00 18 1024.9
20210617193328 82 292 6.0 18.0 0.00 0.00 0.00 18 1024.9
20210617192828 83 292 9.0 19.0 0.00 0.00 0.00 18 1024.8
20210617192328 83 247 6.0 18.0 0.00 0.00 0.00 17 1025.1
20210617191828 84 247 8.0 17.0 0.00 0.00 0.00 17 1025.1
20210617191328 85 292 11.0 16.0 0.00 0.00 0.00 17 1025.1
20210617190828 84 292 6.0 13.0 0.00 0.00 0.00 18 1025.1
20210617190328 84 202 8.0 16.0 0.00 0.00 0.00 18 1025.1
20210617185828 84 292 13.0 16.0 0.00 0.00 0.00 18 1025.4
20210617185328 83 292 6.0 22.0 0.00 0.00 0.00 18 1025.4
20210617184828 83 292 10.0 23.0 0.00 0.00 0.00 18 1025.4
20210617184328 83 292 14.0 22.0 0.00 0.00 0.00 18 1025.7
20210617183828 82 337 15.0 18.0 0.00 0.00 0.00 18 1025.7
20210617183328 82 270 8.0 16.0 0.00 0.00 0.00 18 1025.7
20210617182828 82 292 8.0 19.0 0.00 0.00 0.00 18 1026.0
20210617182328 82 292 11.0 20.0 0.00 0.00 0.00 18 1026.0
20210617181828 82 292 11.0 16.0 0.00 0.00 0.00 18 1026.0
20210617181328 82 292 8.0 14.0 0.00 0.00 0.00 18 1026.0
20210617180828 82 337 7.0 19.0 0.00 0.00 0.00 18 1025.9
20210617180328 82 337 13.0 18.0 0.00 0.00 0.00 18 1026.3
20210617175828 82 270 3.0 14.0 0.00 0.00 0.00 18 1026.3
20210617175328 82 337 10.0 16.0 0.00 0.00 0.00 18 1026.6
20210617174828 81 315 8.0 16.0 0.00 0.00 0.00 18 1026.2
20210617174328 81 270 6.0 19.0 0.00 0.00 0.00 18 1026.6
20210617173828 81 292 8.0 11.0 0.00 0.00 0.00 19 1026.6
20210617173328 81 292 8.0 18.0 0.00 0.00 0.00 19 1026.6
20210617172828 81 292 8.0 16.0 0.00 0.00 0.00 19 1026.6
20210617172328 80 292 3.0 13.0 0.00 0.00 0.00 19 1026.6
20210617171828 80 292 13.0 20.0 0.00 0.00 0.00 19 1026.6
20210617171329 80 270 9.0 16.0 0.00 0.00 0.00 19 1026.6
20210617170828 80 225 6.0 14.0 0.00 0.00 0.00 19 1026.9
20210617170328 80 315 7.0 13.0 0.00 0.00 0.00 19 1026.9
20210617165828 80 292 6.0 11.0 0.00 0.00 0.00 20 1026.9
20210617165328 80 247 6.0 12.0 0.00 0.00 0.00 20 1027.2
20210617164828 79 135 6.0 10.0 0.00 0.00 0.00 20 1027.2
20210617164328 79 247 4.0 12.0 0.00 0.00 0.00 20 1027.2
20210617163828 79 270 10.0 14.0 0.00 0.00 0.00 20 1027.2
20210617163328 79 292 8.0 13.0 0.00 0.00 0.00 20 1027.6
20210617162828 79 247 3.0 10.0 0.00 0.00 0.00 21 1027.6
20210617162328 79 292 5.0 13.0 0.00 0.00 0.00 21 1027.6
20210617161828 79 247 5.0 11.0 0.00 0.00 0.00 21 1027.6
20210617161328 79 270 8.0 8.0 0.00 0.00 0.00 21 1027.6
20210617160828 78 292 6.0 11.0 0.00 0.00 0.00 21 1027.6
20210617160328 78 315 5.0 14.0 0.00 0.00 0.00 22 1027.6
20210617155828 78 247 7.0 11.0 0.00 0.00 0.00 22 1027.6
20210617155328 78 270 5.0 16.0 0.00 0.00 0.00 21 1027.6
20210617154828 77 315 7.0 16.0 0.00 0.00 0.00 21 1028.0
20210617154328 77 270 8.0 14.0 0.00 0.00 0.00 22 1028.0
20210617153828 77 270 6.0 14.0 0.00 0.00 0.00 22 1028.0
20210617153328 76 292 10.0 12.0 0.00 0.00 0.00 23 1028.0
20210617152828 76 292 8.0 12.0 0.00 0.00 0.00 25 1028.0
20210617152328 75 292 9.0 10.0 0.00 0.00 0.00 26 1028.4
20210617151828 74 315 8.0 11.0 0.00 0.00 0.00 26 1028.4
20210617151328 74 247 5.0 10.0 0.00 0.00 0.00 27 1028.4
20210617150828 73 292 8.0 9.0 0.00 0.00 0.00 28 1028.4
20210617150328 71 247 8.0 11.0 0.00 0.00 0.00 30 1028.4
20210617145828 70 292 9.0 12.0 0.00 0.00 0.00 32 1028.5
20210617145328 69 247 3.0 6.0 0.00 0.00 0.00 35 1028.5
20210617144828 68 225 2.0 5.0 0.00 0.00 0.00 36 1028.5
20210617144328 67 225 5.0 6.0 0.00 0.00 0.00 37 1028.8
20210617143828 67 180 4.0 6.0 0.00 0.00 0.00 37 1028.9
20210617143328 66 202 3.0 7.0 0.00 0.00 0.00 37 1028.9
20210617142828 66 225 7.0 7.0 0.00 0.00 0.00 38 1028.9
20210617142328 65 225 4.0 8.0 0.00 0.00 0.00 38 1028.9
20210617141828 65 202 7.0 8.0 0.00 0.00 0.00 38 1028.9
20210617141328 64 225 5.0 8.0 0.00 0.00 0.00 39 1029.0
20210617140828 64 202 6.0 8.0 0.00 0.00 0.00 39 1028.7
20210617140328 63 247 6.0 9.0 0.00 0.00 0.00 39 1029.0
20210617135828 63 225 6.0 11.0 0.00 0.00 0.00 39 1028.8
20210617135329 63 247 5.0 11.0 0.00 0.00 0.00 38 1028.8
20210617134828 62 202 8.0 12.0 0.00 0.00 0.00 38 1028.8
20210617134328 62 225 6.0 11.0 0.00 0.00 0.00 38 1028.8
20210617133828 62 202 8.0 13.0 0.00 0.00 0.00 38 1028.9
20210617133328 62 180 5.0 11.0 0.00 0.00 0.00 38 1028.9
20210617132828 62 202 8.0 11.0 0.00 0.00 0.00 37 1028.6
20210617132328 62 225 8.0 11.0 0.00 0.00 0.00 37 1029.0
20210617131828 62 202 8.0 11.0 0.00 0.00 0.00 37 1029.0
20210617131328 62 225 7.0 10.0 0.00 0.00 0.00 37 1028.7
20210617130828 61 247 8.0 13.0 0.00 0.00 0.00 37 1029.1
20210617130328 61 202 8.0 13.0 0.00 0.00 0.00 37 1028.8
20210617125828 61 202 11.0 11.0 0.00 0.00 0.00 37 1028.8
20210617125328 61 202 7.0 11.0 0.00 0.00 0.00 36 1028.8
20210617124828 61 225 10.0 11.0 0.00 0.00 0.00 36 1028.9
20210617124328 61 202 6.0 11.0 0.00 0.00 0.00 35 1028.9
20210617123828 61 225 6.0 11.0 0.00 0.00 0.00 35 1028.9
20210617123328 61 225 8.0 13.0 0.00 0.00 0.00 35 1029.0
20210617122828 61 202 10.0 13.0 0.00 0.00 0.00 34 1029.0
20210617122328 61 225 11.0 13.0 0.00 0.00 0.00 34 1029.0
20210617121828 62 180 9.0 12.0 0.00 0.00 0.00 34 1029.0
20210617121328 62 247 8.0 11.0 0.00 0.00 0.00 33 1029.1
20210617120828 62 225 10.0 11.0 0.00 0.00 0.00 33 1029.1
20210617120328 62 247 8.0 12.0 0.00 0.00 0.00 33 1028.8
20210617115828 61 225 6.0 14.0 0.00 0.00 0.00 33 1028.8
20210617115328 61 202 10.0 12.0 0.00 0.00 0.00 33 1028.9
20210617114828 61 225 7.0 13.0 0.00 0.00 0.00 33 1028.9
20210617114328 60 202 8.0 12.0 0.00 0.00 0.00 33 1028.9
20210617113828 60 202 10.0 11.0 0.00 0.00 0.00 34 1028.9
20210617113328 61 202 8.0 11.0 0.00 0.00 0.00 34 1029.0
20210617112828 61 225 6.0 10.0 0.00 0.00 0.00 33 1029.0
20210617112328 61 202 8.0 10.0 0.00 0.00 0.00 33 1029.0
20210617111828 61 247 7.0 11.0 0.00 0.00 0.00 33 1029.0
20210617111328 61 202 6.0 11.0 0.00 0.00 0.00 33 1029.1
20210617110828 61 225 6.0 11.0 0.00 0.00 0.00 33 1028.8
20210617110328 61 225 8.0 10.0 0.00 0.00 0.00 33 1028.8
20210617105828 61 225 7.0 11.0 0.00 0.00 0.00 33 1028.8
20210617105328 61 202 6.0 10.0 0.00 0.00 0.00 33 1028.8
20210617104828 61 247 6.0 10.0 0.00 0.00 0.00 33 1028.9
20210617104328 61 247 9.0 11.0 0.00 0.00 0.00 33 1028.9
20210617103828 61 202 6.0 11.0 0.00 0.00 0.00 34 1028.9
20210617103328 61 202 7.0 12.0 0.00 0.00 0.00 34 1028.9
20210617102828 61 225 7.0 11.0 0.00 0.00 0.00 34 1029.0
20210617102328 61 247 8.0 11.0 0.00 0.00 0.00 33 1028.7
20210617101828 61 202 6.0 14.0 0.00 0.00 0.00 33 1028.7
20210617101328 61 247 6.0 10.0 0.00 0.00 0.00 33 1028.7
20210617100828 61 225 10.0 11.0 0.00 0.00 0.00 34 1028.8
20210617100328 61 225 10.0 13.0 0.00 0.00 0.00 34 1028.8
20210617095828 60 225 10.0 13.0 0.00 0.00 0.00 34 1028.8
20210617095328 60 225 7.0 12.0 0.00 0.00 0.00 34 1028.8
20210617094828 60 202 6.0 11.0 0.00 0.00 0.00 34 1028.9
20210617094328 60 247 7.0 10.0 0.00 0.00 0.00 34 1028.6
20210617093828 60 247 6.0 8.0 0.00 0.00 0.00 34 1028.9
20210617093328 60 225 7.0 10.0 0.00 0.00 0.00 34 1028.6
20210617092828 60 225 6.0 10.0 0.00 0.00 0.00 34 1029.0
20210617092328 61 202 6.0 11.0 0.00 0.00 0.00 34 1028.7
20210617091828 61 202 6.0 9.0 0.00 0.00 0.00 34 1028.7
20210617091328 61 247 6.0 8.0 0.00 0.00 0.00 34 1028.7
20210617090828 61 225 4.0 10.0 0.00 0.00 0.00 34 1029.0
20210617090328 61 247 6.0 11.0 0.00 0.00 0.00 33 1028.8
20210617085828 61 225 6.0 8.0 0.00 0.00 0.00 34 1028.8
20210617085328 61 247 6.0 10.0 0.00 0.00 0.00 34 1028.8
20210617084828 62 247 6.0 10.0 0.00 0.00 0.00 33 1028.8
20210617084328 62 247 8.0 13.0 0.00 0.00 0.00 33 1029.2
20210617083828 62 247 12.0 13.0 0.00 0.00 0.00 33 1028.9
20210617083328 62 225 10.0 12.0 0.00 0.00 0.00 33 1029.2
20210617082828 62 247 5.0 10.0 0.00 0.00 0.00 34 1029.2
20210617082328 62 247 5.0 11.0 0.00 0.00 0.00 34 1029.2
20210617081828 62 292 4.0 9.0 0.00 0.00 0.00 34 1029.3
20210617081328 62 247 6.0 10.0 0.00 0.00 0.00 34 1029.3
20210617080828 62 292 5.0 11.0 0.00 0.00 0.00 34 1029.3
20210617080328 62 202 6.0 11.0 0.00 0.00 0.00 34 1029.3
20210617075828 62 270 6.0 11.0 0.00 0.00 0.00 34 1029.3
20210617075328 62 225 5.0 13.0 0.00 0.00 0.00 34 1029.3